Greybull, WY

9:59 PM MDT on July 26, 2017 (GMT -0600)
South Big Horn County

Weather History for KGEY - May, 2013

Change the Weather History Date:

Saturday, May 25, 2013

  Actual Average Record
Temperature  
Mean Temperature 66 °F 60 °F  
Max Temperature 86 °F 73 °F 91 °F (2003)
Min Temperature 46 °F 46 °F 35 °F (2002)
Degree Days  
Heating Degree Days 0 6  
Month to date heating degree days 168 246  
Since 1 July heating degree days 7578 7645  
Cooling Degree Days 1 1  
Month to date cooling degree days 27 10  
Year to date cooling degree days 27 11  
Growing Degree Days 16 (Base 50)    
Moisture  
Dew Point 27 °F    
Average Humidity 28    
Maximum Humidity 49    
Minimum Humidity 7    
Precipitation  
Precipitation 0.00 in 0.07 in 0.21 in (2012)
Month to date precipitation 0.42 1.21  
Year to date precipitation 1.31 2.73  
Sea Level Pressure  
Sea Level Pressure 29.76 in    
Wind  
Wind Speed 9 mph (West)    
Max Wind Speed 33 mph    
Max Gust Speed 38 mph    
Visibility 10 miles    
Events      
T = Trace of Precipitation, MM = Missing Value Source: NWS Daily Summary

Daily Weather History Graph

Daily Weather History Graph

Search for Another Location

Airport or City:

Trip Planner

Search our weather history database for the weather conditions in past years. The results will help you decide how hot, cold, wet, or windy it might be!

Date:

Astronomy

May. 25, 2013 Rise Set
Actual Time 5:35 AM MDT 8:44 PM MDT
Civil Twilight 4:59 AM MDT 9:19 PM MDT
Nautical Twilight 4:14 AM MDT 10:04 PM MDT
Astronomical Twilight 3:19 AM MDT 11:00 PM MDT
Moon 9:34 PM MDT (5/25) 6:05 AM MDT (5/25)
Length of Visible Light 16h 19m
Length of Day
15h 09m
Waxing Gibbous, 99% of the Moon is Illuminated
May 25
Waxing Gibbous
May 31
Last Quarter
Jun 8
New
Jun 16
First Quarter
Jun 23
Full

Hourly Weather History & Observations

Time (MDT) Temp. Windchill Dew Point Humidity Pressure Visibility Wind Dir Wind Speed Gust Speed Precip Events Conditions
12:53 AM 57.0 °F - 27.0 °F 32% 29.83 in 10.0 mi Calm Calm - N/A   Clear
1:53 AM 54.0 °F - 28.0 °F 37% 29.84 in 10.0 mi Calm Calm - N/A   Clear
2:53 AM 52.0 °F - 23.0 °F 32% 29.83 in 10.0 mi East 4.6 mph - N/A   Clear
3:53 AM 52.0 °F - 26.1 °F 37% 29.83 in 10.0 mi Calm Calm - N/A   Mostly Cloudy
4:53 AM 50.0 °F - 26.1 °F 39% 29.84 in 10.0 mi Calm Calm - N/A   Clear
5:53 AM 46.0 °F 44.8 °F 28.0 °F 50% 29.86 in 10.0 mi WNW 3.5 mph - N/A   Clear
6:53 AM 50.0 °F - 30.0 °F 46% 29.86 in 10.0 mi NNW 5.8 mph - N/A   Clear
7:53 AM 55.0 °F - 28.9 °F 37% 29.84 in 10.0 mi ESE 3.5 mph - N/A   Clear
8:53 AM 62.1 °F - 27.0 °F 26% 29.82 in 10.0 mi Calm Calm - N/A   Unknown
9:53 AM 66.0 °F - 26.1 °F 22% 29.81 in 10.0 mi Calm Calm - N/A   Unknown
10:53 AM 70.0 °F - 25.0 °F 18% 29.78 in 10.0 mi Calm Calm - N/A   Clear
11:53 AM 75.0 °F - 21.0 °F 13% 29.76 in 10.0 mi East 6.9 mph - N/A   Clear
12:53 PM 79.0 °F - 19.9 °F 11% 29.72 in 10.0 mi Variable 6.9 mph - N/A   Clear
1:53 PM 81.0 °F - 21.0 °F 11% 29.69 in 10.0 mi SE 13.8 mph 19.6 mph N/A   Clear
2:53 PM 84.0 °F - 19.0 °F 9% 29.68 in 10.0 mi SSE 13.8 mph 23.0 mph N/A   Clear
3:53 PM 84.9 °F - 18.0 °F 8% 29.65 in 10.0 mi South 13.8 mph - N/A   Clear
4:32 PM 86.0 °F - 14.0 °F 7% 29.74 in 10.0 mi SSW 19.6 mph 28.8 mph N/A   Clear
4:53 PM 86.0 °F - 15.1 °F 7% 29.64 in 10.0 mi SSW 19.6 mph 26.5 mph N/A   Clear
5:53 PM 84.0 °F - 17.1 °F 8% 29.64 in 10.0 mi SSW 10.4 mph - N/A   Clear
6:15 PM 82.4 °F - 26.6 °F 13% 29.74 in 10.0 mi NW 20.7 mph 28.8 mph N/A   Partly Cloudy
6:53 PM 77.0 °F - 37.0 °F 24% 29.68 in 10.0 mi NW 28.8 mph 38.0 mph N/A   Clear
7:53 PM 73.9 °F - 39.0 °F 28% 29.69 in 10.0 mi NNW 21.9 mph 31.1 mph N/A   Clear
8:53 PM 70.0 °F - 39.0 °F 32% 29.70 in 10.0 mi NNW 19.6 mph - N/A   Clear
9:53 PM 69.1 °F - 37.9 °F 32% 29.73 in 10.0 mi NW 18.4 mph 28.8 mph N/A   Clear
10:53 PM 66.9 °F - 37.0 °F 33% 29.75 in 10.0 mi NW 17.3 mph - N/A   Clear
11:53 PM 64.9 °F - 37.0 °F 36% 29.77 in 10.0 mi WNW 10.4 mph - N/A   Clear